Regional Weather Roundup
Issued by NWS Bismarck, ND

Home | Current Version | Previous Version | Text Only | Print | Product List | Glossary On
Versions: 1 2 3 4 5 6 7 8 9 10 11 12 13 14 15 16 17 18 19 20 21 22 23 24 25 26 27 28 29 30 31 32 33 34 35 36 37 38 39 40 41 42 43 44 45 46 47 48 49 50
000
ASUS43 KBIS 250310
RWRBIS

NWR BROADCAST TEXT
NATIONAL WEATHER SERVICE BISMARCK ND
900 PM CST WED DEC 24 2014

NOTE: "FAIR" INDICATES FEW OR NO CLOUDS BELOW 12,000 FEET WITH NO
SIGNIFICANT WEATHER AND/OR OBSTRUCTIONS TO VISIBILITY.


CITY           SKY/WX    TMP DP  RH WIND       PRES   REMARKS
WILLISTON      PTCLDY    24  20  84 SW5       29.49S WCI  18
MINOT          CLEAR     28  22  78 W12       29.43S WCI  18
MINOT AFB      CLEAR     27  26  98 W16       29.42F WCI  14
BISMARCK       CLOUDY    29  27  92 CALM      29.47S
DICKINSON      CLOUDY    33  30  88 NW7       29.46R
GARRISON         N/A     28  25  88 NW9       29.45R WCI  19
HETTINGER ARPT CLOUDY    33  31  92 NW6       29.46S
JAMESTOWN      CLOUDY    30  26  85 SW9       29.43F
BEACH          CLOUDY    32  32 100 N6        29.49S
CARRINGTON     FAIR      25  25 100 MISG      29.43F
CROSBY         FAIR      23  23 100 W10       29.47S WCI  12
HARVEY         FAIR      27  27 100 W9        29.43S WCI  17
HAZEN          CLOUDY    32  28  86 W5        29.47S
LINTON         FAIR      28  28 100 CALM      29.46S
MANDAN         CLOUDY    34  32  93 NW9       29.46S
OAKES            N/A     27  27 100 SW15      29.49S WCI  15
RUGBY          FAIR      21  21 100 W10       29.41R WCI  10
STANLEY        FAIR      23  23 100 W10       29.45S WCI  12
TIOGA          FAIR      18  18 100 W6        29.49S WCI   9
WATFORD CITY   FAIR      25  23  93 SW7       29.48R WCI  17
$$

CITY           SKY/WX    TMP DP  RH WIND       PRES   REMARKS
GRAND FORKS    CLOUDY    29  27  92 S13       29.43F WCI  19
GRAND FORKS AF CLOUDY    29  29  99 SW8       29.43F
DEVILS LAKE    PTCLDY    25  21  86 SW9       29.40R WCI  15
FARGO          CLOUDY    29  26  89 S15       29.48F WCI  18
CANDO          FAIR      21  19  93 W9        29.40R WCI  11
CAVALIER       CLOUDY    28  27  93 S7        29.40F FOG
GWINNER        CLOUDY    30  30 100 CALM      29.49F
LANGDON        FAIR      21  19  93 SW12      29.36F WCI   9
ROLLA          FAIR      16  16 100 W6        29.38R WCI   7
WALHALLA         N/A     30  30 100 SW3       29.38F
$$

CITY           SKY/WX    TMP DP  RH WIND       PRES   REMARKS
ABERDEEN       CLOUDY    28  25  88 S10       29.52S WCI  19
MOBRIDGE       CLOUDY    28  23  81 SE7       29.45R
BUFFALO          N/A     35  29  78 N9        29.38S
RAPID CITY     CLOUDY    34  26  72 NW7       29.42F
GLASGOW        PTCLDY    29  26  89 N7        29.52S
SIDNEY         MOCLDY    28  27  93 W7        29.52S
WOLF POINT     MOCLDY    30  24  78 S5        29.52S
GLENDIVE       CLOUDY    34  28  80 NW5       29.51S
MILES CITY     LGT SNOW  32  31  96 N9        29.49S FOG
BAKER          LGT SNOW  32  31  96 N5        29.48S FOG
$$

CITY           SKY/WX    TMP DP  RH WIND       PRES   REMARKS
BILLINGS       CLOUDY    34  31  88 NE16      29.45R
GREAT FALLS    LGT SNOW  30  30 100 N16       29.53R VSB 3/4 WCI  19
REGINA         CLOUDY    27  25  93 NW18      29.46R WCI  13
ESTEVAN        MOCLDY    21  18  86 W10       29.45R WCI  10
$$



USA.gov is the U.S. government's official web portal to all federal, state and local government web resources and services.